Stations météo

réclame
Mon MeteoGroup
Le Talut, France (7207): Température de l'air & dewpoint: 16.06.2018 09:00:00 - 22.06.2018 09:00:00 (CEST)Le Talut, France (7207): Vitesse du vent & gusts: 16.06.2018 09:00:00 - 22.06.2018 09:00:00 (CEST)Le Talut, France (7207): Direction du vent: 16.06.2018 09:00:00 - 22.06.2018 09:00:00 (CEST)Le Talut, France (7207): reduced air pressure: 16.06.2018 09:00:00 - 22.06.2018 09:00:00 (CEST)Le Talut, France (7207): visibility: 16.06.2018 09:00:00 - 22.06.2018 09:00:00 (CEST)Le Talut, France (7207): Quantités de précipitations: 16.06.2018 09:00:00 - 22.06.2018 09:00:00 (CEST)
Date & Time tt [°C] td [°C] ff [km/h] ff [knt] fx [km/h] fx [knt] dd ppp [hPa] vv [km] rr [mm]
22.06.2018 09:00:00 15,1 5,6 26 14 53 29 E 1029,2 - 0,0
22.06.2018 08:00:00 14,1 5,4 28 15 49 26 E 1029,0 - 0,0
22.06.2018 07:00:00 12,9 7,3 25 14 40 22 ENE 1028,9 - 0,0
22.06.2018 06:00:00 12,8 7,7 26 14 45 24 ENE 1028,5 - 0,0
22.06.2018 05:00:00 13,2 7,4 31 17 51 27 ENE 1028,1 - 0,0
22.06.2018 04:00:00 13,6 7,8 28 15 46 25 NE 1027,6 - 0,0
22.06.2018 03:00:00 13,7 7,7 31 17 51 27 NE 1027,6 - 0,0
22.06.2018 02:00:00 13,8 7,1 31 17 49 27 NE 1027,6 - -
22.06.2018 01:00:00 13,8 6,9 28 15 46 25 NE 1027,4 - 0,0
22.06.2018 00:00:00 13,9 7,0 25 14 46 25 NNE 1027,4 - 0,0
21.06.2018 23:00:00 14,4 8,1 24 13 40 22 NNE 1026,8 - 0,0
21.06.2018 22:00:00 15,4 8,6 24 13 44 24 NNE 1025,9 - 0,0
21.06.2018 21:00:00 16,8 9,2 24 13 46 25 NNE 1025,5 - 0,0
21.06.2018 20:00:00 18,7 10,3 26 14 49 27 NNE 1025,1 - 0,0
21.06.2018 19:00:00 19,3 10,3 28 15 45 25 NNE 1025,1 - 0,0
21.06.2018 18:00:00 19,9 9,2 29 15 46 25 NNE 1024,9 - 0,0
21.06.2018 17:00:00 21,4 11,4 23 13 45 24 N 1025,1 20 0,0
21.06.2018 16:00:00 21,3 10,5 24 13 42 23 N 1024,9 - 0,0
21.06.2018 15:00:00 20,9 9,8 24 13 49 26 NE 1024,7 - 0,0
21.06.2018 14:00:00 20,7 11,3 23 13 48 26 NNE 1024,3 - 0,0
21.06.2018 13:00:00 19,9 11,6 26 14 48 26 NNE 1023,9 - 0,0
21.06.2018 12:00:00 18,6 11,9 32 17 49 26 N 1023,7 - 0,0
21.06.2018 11:00:00 17,8 11,6 27 14 45 24 N 1023,8 - 0,0
21.06.2018 10:00:00 17,4 12,3 23 12 43 23 NNE 1023,7 - 0,0
21.06.2018 09:00:00 16,7 12,4 21 11 45 24 NNE 1023,5 - 0,0
21.06.2018 08:00:00 15,7 12,8 24 13 53 29 N 1023,1 20 0,0
21.06.2018 07:00:00 15,2 13,7 33 18 59 32 N 1022,1 - 0,0
21.06.2018 06:00:00 15,0 13,9 41 22 55 30 N 1021,6 - 0,0
21.06.2018 05:00:00 15,3 14,0 31 17 45 24 N 1021,3 - 0,0
21.06.2018 04:00:00 16,0 14,5 25 13 46 25 N 1021,3 - 0,0
21.06.2018 03:00:00 17,3 15,3 32 17 49 26 N 1021,7 - 0,0
21.06.2018 02:00:00 18,6 14,7 23 12 32 17 N 1021,4 - 0,0
21.06.2018 01:00:00 19,5 15,8 22 12 33 18 NNE 1021,2 - 0,0
21.06.2018 00:00:00 19,6 16,2 17 9 23 13 NNE 1021,3 - 0,0
20.06.2018 23:00:00 19,9 16,7 16 9 23 12 N 1021,3 - 0,0
20.06.2018 22:00:00 21,0 16,2 15 8 25 13 NNW 1020,4 - 0,0
20.06.2018 21:00:00 21,9 16,8 16 9 25 13 NNW 1020,4 - 0,0
20.06.2018 20:00:00 23,2 17,4 13 7 26 14 NNW 1020,2 - 0,0
20.06.2018 19:00:00 23,2 16,7 21 11 29 16 NNW 1020,2 - 0,0
20.06.2018 18:00:00 27,2 16,2 11 6 29 16 ENE 1020,1 - 0,0
20.06.2018 17:00:00 27,1 15,5 19 11 32 17 NE 1020,1 - 0,0
20.06.2018 16:00:00 26,6 16,2 22 12 37 20 NE 1020,5 - 0,0
20.06.2018 15:00:00 25,9 17,5 19 11 34 18 NNE 1021,1 - 0,0
20.06.2018 14:00:00 25,0 17,0 19 10 29 16 NE 1021,5 - 0,0
20.06.2018 13:00:00 24,1 17,6 17 9 28 15 NNE 1021,8 - 0,0
20.06.2018 12:00:00 23,5 17,9 17 9 30 16 NNE 1021,8 - 0,0
20.06.2018 11:00:00 22,2 17,8 18 10 27 14 NNE 1021,7 15 0,0
20.06.2018 10:00:00 20,3 16,7 21 11 31 17 NE 1021,9 - 0,0
20.06.2018 09:00:00 18,8 16,2 21 12 32 17 NNE 1021,7 - 0,0
20.06.2018 08:00:00 17,3 15,8 23 12 29 15 NNE 1021,8 15 0,0
20.06.2018 07:00:00 16,3 15,3 22 12 29 16 NE 1021,7 - 0,0
20.06.2018 06:00:00 16,1 15,3 21 11 28 15 NE 1021,8 - 0,2
20.06.2018 05:00:00 16,0 15,0 21 12 27 15 NNE 1022,1 - 0,0
20.06.2018 04:00:00 16,3 15,2 21 11 24 13 NNE 1022,3 - 0,0
20.06.2018 03:00:00 16,9 15,6 18 10 22 12 NE 1022,6 - 0,0
20.06.2018 02:00:00 16,4 15,3 16 9 21 11 NE 1022,8 - 0,0
20.06.2018 01:00:00 15,7 14,6 8 5 17 9 N 1023,4 - 0,0
20.06.2018 00:00:00 15,7 14,6 14 8 20 11 N 1023,7 - 0,0
19.06.2018 23:00:00 16,3 14,8 16 9 22 12 N 1023,6 - 0,0
19.06.2018 22:00:00 18,3 15,4 11 6 17 9 N 1023,5 - 0,0
19.06.2018 21:00:00 20,9 16,5 6 4 13 7 NW 1023,6 - 0,0
19.06.2018 20:00:00 20,6 16,6 9 5 16 9 NW 1024,0 15 0,0
19.06.2018 19:00:00 20,0 16,0 8 5 13 7 WNW 1024,5 - 0,0
19.06.2018 18:00:00 20,4 16,6 6 3 15 8 W 1025,1 - 0,0
19.06.2018 17:00:00 19,9 16,5 9 5 15 8 W 1025,6 - 0,0
19.06.2018 16:00:00 19,2 15,7 8 4 14 7 W 1026,0 - 0,0
19.06.2018 15:00:00 18,6 15,5 9 5 13 7 W 1026,3 - 0,0
19.06.2018 14:00:00 17,6 15,0 6 4 11 6 W 1026,7 - 0,0
19.06.2018 13:00:00 17,3 15,1 5 3 12 6 SSE 1026,8 - 0,0
19.06.2018 12:00:00 17,3 14,9 6 3 18 10 SE 1026,9 - 0,0
19.06.2018 11:00:00 16,9 15,1 12 7 22 12 NE 1027,2 10 0,0
19.06.2018 10:00:00 16,1 14,8 11 6 21 11 ENE 1027,3 - 0,0
19.06.2018 09:00:00 15,8 14,8 9 5 16 9 NE 1027,2 - 0,0
19.06.2018 08:00:00 15,4 14,6 8 5 14 7 N 1027,1 12 0,0
19.06.2018 07:00:00 15,1 14,5 6 3 17 9 N 1027,0 - 0,0
19.06.2018 06:00:00 15,0 14,5 7 4 21 11 NNW 1026,9 - 0,0
19.06.2018 05:00:00 15,0 14,5 14 8 25 13 NW 1026,7 - 0,0
19.06.2018 04:00:00 15,1 14,6 16 9 32 17 NW 1026,6 - 0,0
19.06.2018 03:00:00 15,1 14,6 20 11 36 20 NNW 1026,6 - 0,0
19.06.2018 02:00:00 15,1 14,6 22 12 42 23 NNW 1026,7 - 0,0
19.06.2018 01:00:00 15,4 14,8 24 13 39 21 NW 1026,9 - 0,0
19.06.2018 00:00:00 15,7 14,7 24 13 41 22 NW 1027,1 - 0,0
18.06.2018 23:00:00 15,8 14,7 26 14 38 21 NW 1027,2 - 0,0
18.06.2018 22:00:00 16,1 14,5 23 12 38 21 NW 1026,8 - 0,0
18.06.2018 21:00:00 17,2 15,0 22 12 40 22 NW 1026,5 - 0,0
18.06.2018 20:00:00 17,7 15,1 26 14 41 22 NW 1026,3 18 0,0
18.06.2018 19:00:00 18,5 15,2 22 12 38 21 NW 1026,1 - 0,0
18.06.2018 18:00:00 18,8 14,9 23 12 39 21 NW 1026,3 - 0,0
18.06.2018 17:00:00 19,0 15,1 14 8 30 16 WNW 1026,3 16 0,0
18.06.2018 16:00:00 18,6 14,3 16 9 29 15 W 1026,4 - 0,0
18.06.2018 15:00:00 19,0 14,5 16 9 29 16 W 1026,0 - 0,0
18.06.2018 14:00:00 18,4 14,1 13 7 35 19 W 1026,2 18 0,0
18.06.2018 13:00:00 17,4 13,1 23 12 35 19 NW 1026,2 - 0,0
18.06.2018 12:00:00 17,5 13,8 19 10 34 19 WNW 1025,9 - 0,0
18.06.2018 11:00:00 17,5 13,2 19 10 34 18 NW 1025,5 20 0,0
18.06.2018 10:00:00 16,4 13,7 15 8 28 15 NW 1025,2 - 0,0
18.06.2018 09:00:00 16,1 13,2 15 8 32 17 NW 1024,8 - 0,0
18.06.2018 08:00:00 15,6 12,2 16 9 40 22 NW 1024,4 20 0,0
18.06.2018 07:00:00 15,6 12,7 21 12 34 19 NW 1023,9 - 0,0
18.06.2018 06:00:00 15,3 13,1 19 10 37 20 WNW 1023,6 - 0,0
18.06.2018 05:00:00 15,8 12,5 19 10 39 21 WNW 1023,2 - 0,0
18.06.2018 04:00:00 15,9 12,1 24 13 49 26 W 1023,1 - 0,0
18.06.2018 03:00:00 15,6 14,3 22 12 44 24 W 1023,1 - 0,0
18.06.2018 02:00:00 16,1 15,3 21 12 35 19 W 1023,0 - 0,0
18.06.2018 01:00:00 16,2 15,4 21 12 37 20 W 1023,0 - 0,2
18.06.2018 00:00:00 16,3 15,2 23 12 35 19 W 1023,2 - 0,0
17.06.2018 23:00:00 16,5 15,2 23 13 37 20 W 1023,1 - 0,0
17.06.2018 22:00:00 16,5 15,5 23 12 42 23 W 1022,8 - 0,0
17.06.2018 21:00:00 16,3 15,5 26 14 48 26 WSW 1022,6 - 0,0
17.06.2018 20:00:00 16,3 15,2 30 16 45 24 W 1022,5 6 0,0
17.06.2018 19:00:00 16,3 15,0 29 16 47 25 WSW 1022,5 - 0,0
17.06.2018 18:00:00 15,6 14,6 24 13 41 22 WSW 1022,7 - 0,0
17.06.2018 17:00:00 15,7 13,9 22 12 44 24 WSW 1023,0 8 0,0
17.06.2018 16:00:00 15,9 12,5 22 12 40 22 WSW 1023,1 - 0,0
17.06.2018 15:00:00 15,4 12,9 15 8 48 26 WSW 1023,3 - 0,0
17.06.2018 14:00:00 16,9 12,2 20 11 38 21 WSW 1022,9 20 0,0
17.06.2018 13:00:00 17,0 11,9 20 11 36 19 WSW 1023,1 - 0,0
17.06.2018 12:00:00 16,7 10,8 19 11 40 21 WSW 1022,9 - 0,0
17.06.2018 11:00:00 16,6 10,7 16 9 29 16 WSW 1022,7 20 0,0
17.06.2018 10:00:00 16,0 9,4 18 10 35 19 WSW 1022,8 - 0,0
17.06.2018 09:00:00 16,0 9,9 22 12 49 27 W 1022,5 - 0,0
17.06.2018 08:00:00 15,4 10,2 22 12 36 19 W 1022,0 20 0,0
17.06.2018 07:00:00 14,8 10,2 6 3 17 9 WNW 1021,9 - 0,0
17.06.2018 06:00:00 14,8 10,4 12 7 21 11 NW 1021,6 - 0,0
17.06.2018 05:00:00 15,1 10,5 10 5 26 14 WNW 1021,5 - 0,0
17.06.2018 04:00:00 14,9 10,3 13 7 22 12 NW 1021,6 - 0,0
17.06.2018 03:00:00 15,0 9,6 15 8 27 14 NW 1021,5 - 0,0
17.06.2018 02:00:00 14,9 7,9 14 7 29 15 NW 1021,6 - 0,0
17.06.2018 01:00:00 15,1 8,3 17 9 35 19 WNW 1021,5 - 0,0
17.06.2018 00:00:00 15,1 9,0 14 8 32 17 WNW 1021,3 - 0,0
16.06.2018 23:00:00 15,2 9,5 15 8 31 17 WNW 1021,4 - 0,0
16.06.2018 22:00:00 15,2 10,6 16 9 35 19 NW 1020,6 - 0,0
16.06.2018 21:00:00 16,2 11,1 18 10 33 18 WNW 1020,4 - 0,0
16.06.2018 20:00:00 16,2 12,6 14 8 31 17 WNW 1019,9 20 0,0
16.06.2018 19:00:00 16,3 13,2 18 10 37 20 NW 1019,7 - 0,0
16.06.2018 18:00:00 16,5 14,0 19 11 42 23 WSW 1019,8 - 0,0
16.06.2018 17:00:00 16,2 12,9 25 14 42 23 WSW 1019,5 20 0,0
16.06.2018 16:00:00 17,0 12,1 21 11 36 20 WSW 1019,5 - 0,0
16.06.2018 15:00:00 15,6 12,3 19 11 34 18 WSW 1019,6 - 0,0
16.06.2018 14:00:00 17,1 11,6 14 7 29 15 SW 1019,7 20 0,0
16.06.2018 13:00:00 16,8 11,3 12 7 26 14 WSW 1019,6 - 0,0
16.06.2018 12:00:00 16,7 10,8 16 8 29 16 W 1019,5 - 0,0
16.06.2018 11:00:00 15,7 11,9 15 8 28 15 W 1019,6 20 0,0
16.06.2018 10:00:00 16,8 10,2 16 8 31 17 W 1018,9 - 0,0
16.06.2018 09:00:00 15,9 10,4 16 9 29 16 W 1019,1 - 0,0

tt = Température de l'air
td = dewpoint
ff = Vitesse du vent
fx = gusts
dd = Direction du vent
ppp = reduced air pressure
vv = visibility
rr = Quantités de précipitations

stations d'obs. à proximité